This is the latest recevied weather packets stored in our database for station/object W1BKW. If no packets are shown the sender has not sent any weather packets the latest 10 day(s).
| Time | Temp. | Humidity | Pressure | Rain* | Wind** | Luminosity | Snow |
|---|---|---|---|---|---|---|---|
| 1777657582 | 11.11° C | 55% | 1006.4 hPa | 0 mm | - | 42 W/m² | - |
| 1777656679 | 10.56° C | 54% | 1006.4 hPa | 0 mm | - | 41 W/m² | - |
| 1777655778 | 10.56° C | 57% | 1006.6 hPa | 0 mm | - | 120 W/m² | - |
| 1777654875 | 10.56° C | 58% | 1006.6 hPa | 0 mm | - | 545 W/m² | - |
| 1777653974 | 10° C | 58% | 1006.8 hPa | 0 mm | - | 533 W/m² | - |
| 1777653070 | 10° C | 60% | 1006.8 hPa | 0 mm | - | 435 W/m² | - |
| 1777652166 | 10° C | 59% | 1007 hPa | 0 mm | - | 667 W/m² | - |
| 1777651262 | 10° C | 59% | 1007.2 hPa | 0 mm | - | 461 W/m² | - |
| 1777650359 | 9.44° C | 62% | 1007.2 hPa | 0 mm | - | 470 W/m² | - |
| 1777649456 | 10° C | 60% | 1006.9 hPa | 0 mm | - | 479 W/m² | - |
| 1777648552 | 9.44° C | 63% | 1007.1 hPa | 0 mm | - | 716 W/m² | - |
| 1777647653 | 9.44° C | 64% | 1007.3 hPa | 0 mm | - | 46 W/m² | - |
| 1777646749 | 8.33° C | 62% | 1007.4 hPa | 0 mm | - | 758 W/m² | - |
| 1777645844 | 9.44° C | 67% | 1007.1 hPa | 0 mm | - | 569 W/m² | - |
| 1777644938 | 8.33° C | 66% | 1007.2 hPa | 0 mm | - | 701 W/m² | - |
| 1777644034 | 8.33° C | 68% | 1007.1 hPa | 0 mm | - | 491 W/m² | - |
| 1777643131 | 8.33° C | 69% | 1007.2 hPa | 0 mm | - | 549 W/m² | - |
| 1777642226 | 7.78° C | 67% | 1007.1 hPa | 0 mm | - | 609 W/m² | - |
| 1777641326 | 7.78° C | 69% | 1006.9 hPa | 0 mm | - | 597 W/m² | - |
| 1777640421 | 7.22° C | 71% | 1007 hPa | 0 mm | - | 530 W/m² | - |
| 1777639518 | 6.67° C | 70% | 1007 hPa | 0 mm | - | 440 W/m² | - |
| 1777638612 | 7.22° C | 70% | 1006.8 hPa | 0 mm | - | 375 W/m² | - |
| 1777637708 | 6.67° C | 76% | 1006.8 hPa | 0 mm | - | 141 W/m² | - |
| 1777636803 | 6.11° C | 74% | 1006.7 hPa | 0 mm | - | 215 W/m² | - |
| 1777635902 | 6.11° C | 78% | 1007 hPa | 0 mm | - | 74 W/m² | - |
* Rain latest hour (hover to see other rain measurements)
** Current wind speed in m/s (hover to see current wind gust speed)